Weather History for KEMP - August, 2013

Change the Weather History Date:

Saturday, August 3, 2013

  Actual Average Record
Temperature  
Mean Temperature 78 °F 79 °F  
Max Temperature 86 °F 91 °F 102 °F (2012)
Min Temperature 69 °F 68 °F 64 °F (2000)
Degree Days  
Heating Degree Days 0 0  
Month to date heating degree days 0 0  
Since 1 June heating degree days 14 8  
Since 1 July heating degree days 2 0  
Cooling Degree Days 13 14  
Month to date cooling degree days 24 42  
Year to date cooling degree days 827 858  
Since 1 June cooling degree days 711 739  
Growing Degree Days 28 (Base 50)    
Moisture  
Dew Point 72 °F    
Average Humidity 85    
Maximum Humidity 100    
Minimum Humidity 63    
Precipitation  
Precipitation 0.00 in 0.08 in 0.65 in (2006)
Month to date precipitation 0.86 0.27  
Year to date precipitation 20.04 23.06  
Sea Level Pressure  
Sea Level Pressure 30.02 in    
Wind  
Wind Speed 7 mph (East)    
Max Wind Speed 14 mph    
Max Gust Speed -    
Visibility 10 miles    
Events      
T = Trace of Precipitation, MM = Missing Value Source: NWS Daily Summary

Daily Weather History Graph

Daily Weather History Graph

Search for Another Location

Airport or City:

Trip Planner

Search our weather history database for the weather conditions in past years. The results will help you decide how hot, cold, wet, or windy it might be!

Date:

Astronomy

Aug. 03, 2013 Rise Set
Actual Time 6:29 AM CDT 8:32 PM CDT
Civil Twilight 5:59 AM CDT 9:01 PM CDT
Nautical Twilight 5:24 AM CDT 9:36 PM CDT
Astronomical Twilight 4:45 AM CDT 10:15 PM CDT
Moon 3:39 AM CDT (8/3) 6:15 PM CDT (8/3)
Length of Visible Light 15h 01m
Length of Day
14h 03m
Waning Crescent, 9% of the Moon is Illuminated
Aug 3
Waning Crescent
Aug 6
New
Aug 14
First Quarter
Aug 20
Full
Aug 28
Last Quarter

Hourly Weather History & Observations

Time (CDT) Temp. Heat Index Dew Point Humidity Pressure Visibility Wind Dir Wind Speed Gust Speed Precip Events Conditions
2:53 AM 70.0 °F - 69.1 °F 97% 29.92 in 10.0 mi NNE 6.9 mph - N/A   Scattered Clouds
3:53 AM 70.0 °F - 69.1 °F 97% 29.94 in 10.0 mi Calm Calm - N/A   Scattered Clouds
4:44 AM 69.8 °F - 69.8 °F 100% 29.96 in 10.0 mi East 4.6 mph - N/A   Mostly Cloudy
4:53 AM 70.0 °F - 69.1 °F 97% 29.94 in 10.0 mi Calm Calm - N/A   Overcast
5:22 AM 69.8 °F - 69.8 °F 100% 29.96 in 10.0 mi Calm Calm - N/A   Scattered Clouds
5:53 AM 69.1 °F - 68.0 °F 96% 29.94 in 10.0 mi Variable 5.8 mph - N/A   Clear
6:53 AM 71.1 °F - 69.1 °F 93% 29.96 in 10.0 mi ENE 9.2 mph - N/A   Overcast
7:53 AM 72.0 °F - 70.0 °F 93% 29.99 in 9.0 mi East 6.9 mph - N/A   Mostly Cloudy
8:37 AM 71.6 °F - 71.6 °F 100% 30.03 in 7.0 mi East 10.4 mph - N/A   Overcast
8:53 AM 72.0 °F - 71.1 °F 97% 30.00 in 7.0 mi East 11.5 mph - N/A   Overcast
9:53 AM 75.0 °F - 71.1 °F 87% 30.01 in 10.0 mi East 12.7 mph - N/A   Overcast
10:29 AM 77.0 °F - 71.6 °F 83% 30.05 in 10.0 mi East 9.2 mph - N/A   Overcast
10:53 AM 77.0 °F - 72.0 °F 84% 30.02 in 10.0 mi ESE 12.7 mph - N/A   Overcast
11:03 AM 77.0 °F - 73.4 °F 89% 30.06 in 10.0 mi East 11.5 mph - N/A   Overcast
11:53 AM 77.0 °F - 73.0 °F 88% 30.03 in 10.0 mi East 10.4 mph - N/A   Overcast
12:37 PM 78.8 °F - 73.4 °F 83% 30.06 in 10.0 mi East 9.2 mph - N/A   Overcast
12:53 PM 81.0 °F 86.7 °F 75.0 °F 82% 30.03 in 10.0 mi SE 9.2 mph - N/A   Mostly Cloudy
1:12 PM 82.4 °F 88.2 °F 73.4 °F 74% 30.06 in 10.0 mi SE 9.2 mph - N/A   Mostly Cloudy
1:53 PM 84.9 °F 90.7 °F 72.0 °F 65% 30.03 in 10.0 mi SE 9.2 mph - N/A   Clear
2:53 PM 84.9 °F 90.1 °F 71.1 °F 63% 30.03 in 10.0 mi ESE 9.2 mph - N/A   Clear
3:53 PM 86.0 °F 92.2 °F 72.0 °F 63% 30.02 in 10.0 mi ENE 9.2 mph - N/A   Clear
4:53 PM 84.9 °F 93.3 °F 75.0 °F 72% 30.01 in 10.0 mi ENE 11.5 mph - N/A   Scattered Clouds
5:53 PM 84.0 °F 91.9 °F 75.0 °F 74% 30.01 in 10.0 mi ENE 13.8 mph - N/A   Clear
6:53 PM 82.0 °F 87.9 °F 73.9 °F 76% 30.02 in 10.0 mi ENE 10.4 mph - N/A   Mostly Cloudy
7:30 PM 80.6 °F 85.4 °F 73.4 °F 79% 30.06 in 10.0 mi ENE 8.1 mph - N/A   Mostly Cloudy
7:53 PM 80.1 °F 84.2 °F 73.0 °F 79% 30.03 in 10.0 mi ENE 12.7 mph - N/A   Overcast
8:39 PM 78.8 °F - 73.4 °F 83% 30.06 in 10.0 mi East 9.2 mph - N/A   Mostly Cloudy
8:53 PM 78.1 °F - 73.0 °F 84% 30.04 in 10.0 mi ENE 10.4 mph - N/A   Overcast
9:02 PM 78.8 °F - 73.4 °F 83% 30.07 in 10.0 mi East 10.4 mph - N/A   Overcast
9:30 PM 78.8 °F - 73.4 °F 83% 30.08 in 10.0 mi East 10.4 mph - N/A   Mostly Cloudy
9:53 PM 77.0 °F - 72.0 °F 84% 30.06 in 10.0 mi East 10.4 mph - N/A   Scattered Clouds
10:53 PM 75.9 °F - 72.0 °F 87% 30.08 in 10.0 mi East 6.9 mph - N/A   Mostly Cloudy
11:53 PM 75.0 °F - 73.0 °F 94% 30.09 in 10.0 mi ENE 3.5 mph - N/A   Overcast